Flag for Angola Weather past 2 weeks in Lubango, Angola

Now
79 °F

Sunny.


Feels Like: 78 °F
Forecast: 56 / 73 °F
Wind: 13 mph from East

Location: Ondangwa

Current Time: Jul 29, 2014 at 12:29:44 PM

Latest Report: Jul 29, 2014 at 11:00 AM


Visibility: 10 mi

Pressure: 30.18 "Hg

Humidity: 16%

Dew point: 28 °F

Location of LubangoLocation

Historic Weather in Lubango — Graph

°F

Lubango temperature yesterday

Maximum temperature yesterday: 84 °F (at 3:00 PM)
Minimum temperature yesterday: 52 °F (at 7:00 AM)
Average temperature yesterday: 66 °F

Past Weeks' High & Low Weather Summary

 TemperatureHumidityPressure
High88 °F (Jul 20, 3:00 PM)71% (Jul 26, 6:00 AM)30.27 "Hg (Jul 26, 6:00 AM)
Low45 °F (Jul 26, 6:00 AM)6% (Jul 14, 1:00 PM)30.01 "Hg (Jul 25, 3:00 PM)
Average66 °F29%30.15 "Hg
* Reported Jul 14 11:00 AM — Jul 29 11:00 AM, Lubango, Weather by CustomWeather, © 2014

Note: Actual official high and low records may vary slightly from our data, if they occured in-between our weather recording intervals... More about our weather records

Advertising

Lubango weather history for previous 24 hours

 ConditionsComfort  
Time TempWeatherWind HumidityBarometerVisibility
11:00 AM
Jul 29
79 °FSunny.13 mph16%30.18 "Hg10 mi
10:00 AM75 °FSunny.12 mph18%30.21 "Hg10 mi
9:00 AM70 °FSunny.13 mph21%30.21 "Hg10 mi
8:00 AM64 °FSunny.12 mph26%30.18 "Hg10 mi
7:00 AM55 °FSunny.6 mph33%30.18 "Hg10 mi
6:00 AM55 °FRefreshingly cool.6 mph31%30.18 "HgN/A
5:00 AM55 °FRefreshingly cool.7 mph33%30.15 "HgN/A
4:00 AM54 °FCool.3 mph38%30.15 "HgN/A
3:00 AM55 °FRefreshingly cool.5 mph33%30.15 "HgN/A
2:00 AM55 °FRefreshingly cool.3 mph36%30.15 "HgN/A
1:00 AM57 °FRefreshingly cool.5 mph33%30.15 "HgN/A
12:00 AM59 °FRefreshingly cool.5 mph31%30.15 "HgN/A
11:00 PM
Jul 28
59 °FRefreshingly cool.5 mph31%30.18 "HgN/A
10:00 PM61 °FRefreshingly cool.3 mph31%30.18 "HgN/A
9:00 PM64 °FMild.6 mph28%30.15 "HgN/A
8:00 PM64 °FMild.2 mph28%30.12 "HgN/A
7:00 PM70 °FClear.2 mph23%30.12 "Hg10 mi
6:00 PM73 °FClear.2 mph17%30.09 "Hg10 mi
5:00 PM82 °FSunny.5 mph14%30.09 "Hg10 mi
4:00 PM84 °FSunny.6 mph14%30.09 "Hg10 mi
3:00 PM84 °FSunny.7 mph14%30.09 "Hg10 mi
2:00 PM82 °FPleasantly warm.8 mph14%30.12 "HgN/A
1:00 PM81 °FSunny.10 mph16%30.15 "Hg10 mi
12:00 PM79 °FSunny.8 mph16%30.18 "Hg10 mi
Weather by CustomWeather, © 2014

See weather overviewHow to use our weather pages